| time (UTC) | temp F | wind direction | speed MPH | gust MPH | rain 1hr in | rain 24hr in | rain mn in | humidity % | barometer mb |
| 20260831131549 | 68 | 0.0 | 0.0 | 0.00 | 0.05 | 0.00 | 79 | 1008.4 | |
| 20260831130059 | 67 | 0.0 | 0.0 | 0.00 | 0.05 | 0.00 | 81 | 1008.5 | |
| 20260831124608 | 67 | 0.0 | 0.0 | 0.00 | 0.05 | 0.00 | 83 | 1008.3 | |
| 20260831123051 | 67 | 0.0 | 0.0 | 0.00 | 0.05 | 0.00 | 86 | 1008.2 | |
| 20260831121559 | 66 | 0.0 | 0.0 | 0.00 | 0.05 | 0.00 | 91 | 1008.6 | |
| 20260831120057 | 64 | 0.0 | 0.0 | 0.00 | 0.04 | 0.00 | 92 | 1008.7 | |
| 20260831114554 | 64 | 0.0 | 0.0 | 0.00 | 0.13 | 0.00 | 91 | 1008.9 | |
| 20260831113054 | 64 | 0.0 | 0.0 | 0.00 | 0.13 | 0.00 | 91 | 1008.9 | |
| 20260831111601 | 64 | 0.0 | 0.0 | 0.00 | 0.13 | 0.00 | 91 | 1008.8 | |
| 20260831110057 | 64 | 0.0 | 0.0 | 0.00 | 0.13 | 0.00 | 91 | 1008.9 | |
| 20260831104551 | 64 | 0.0 | 0.0 | 0.00 | 0.14 | 0.00 | 92 | 1009.0 | |
| 20260831103058 | 63 | 0.0 | 0.0 | 0.00 | 0.14 | 0.00 | 93 | 1009.0 | |
| 20260831101613 | 63 | 0.0 | 0.0 | 0.00 | 0.14 | 0.00 | 95 | 1009.2 | |
| 20260831100108 | 63 | 0.0 | 0.0 | 0.00 | 0.14 | 0.00 | 96 | 1009.1 | |
| 20260831094553 | 62 | 0.0 | 0.0 | 0.00 | 0.14 | 0.00 | 96 | 1009.2 | |
| 20260831093053 | 62 | 0.0 | 0.0 | 0.00 | 0.14 | 0.00 | 97 | 1009.2 | |
| 20260831091559 | 61 | 0.0 | 0.0 | 0.00 | 0.14 | 0.00 | 97 | 1009.5 | |
| 20260831090106 | 61 | 0.0 | 0.0 | 0.00 | 0.14 | 0.00 | 97 | 1009.5 | |
| 20260831084556 | 61 | 0.0 | 0.0 | 0.00 | 0.21 | 0.00 | 97 | 1009.5 | |
| 20260831083056 | 61 | 0.0 | 0.0 | 0.00 | 0.21 | 0.00 | 98 | 1009.6 | |
| 20260831081555 | 61 | 0.0 | 0.0 | 0.00 | 0.21 | 0.00 | 98 | 1009.8 | |
| 20260831080105 | 60 | 0.0 | 0.0 | 0.00 | 0.21 | 0.00 | 98 | 1009.7 | |
| 20260831074600 | 60 | 0.0 | 0.0 | 0.00 | 0.22 | 0.00 | 98 | 1009.8 | |
| 20260831073104 | 60 | 0.0 | 0.0 | 0.00 | 0.22 | 0.00 | 98 | 1009.8 | |
| 20260831071552 | 59 | 0.0 | 0.0 | 0.00 | 0.22 | 0.00 | 98 | 1009.9 | |
| 20260831070051 | 59 | 0.0 | 0.0 | 0.00 | 0.22 | 0.00 | 98 | 1009.8 | |
| 20260831064559 | 59 | 0.0 | 0.0 | 0.00 | 0.25 | 0.00 | 98 | 1009.7 | |
| 20260831063055 | 58 | 0.0 | 0.0 | 0.00 | 0.25 | 0.00 | 98 | 1009.6 | |
| 20260831061600 | 58 | 0.0 | 0.0 | 0.00 | 0.25 | 0.00 | 98 | 1009.7 | |
| 20260831060110 | 57 | 0.0 | 0.0 | 0.00 | 0.25 | 0.00 | 98 | 1009.6 | |
| 20260831054558 | 57 | 0.0 | 0.0 | 0.00 | 0.26 | 0.00 | 98 | 1009.8 | |
| 20260831053050 | 56 | 0.0 | 0.0 | 0.00 | 0.26 | 0.00 | 98 | 1009.8 | |
| 20260831051617 | 56 | 0.0 | 0.0 | 0.00 | 0.26 | 0.00 | 98 | 1010.0 | |
| 20260831050058 | 56 | 0.0 | 0.0 | 0.00 | 0.26 | 0.00 | 98 | 1010.3 | |
| 20260831044553 | 56 | 0.0 | 0.0 | 0.00 | 0.26 | 0.00 | 98 | 1010.0 | |
| 20260831043100 | 56 | 0.0 | 0.0 | 0.00 | 0.26 | 0.00 | 98 | 1010.0 | |
| 20260831041559 | 56 | 0.0 | 0.0 | 0.00 | 0.26 | 0.00 | 98 | 1009.8 | |
| 20260831040054 | 57 | 0.0 | 0.0 | 0.00 | 0.26 | 0.00 | 98 | 1009.9 | |
| 20260831034559 | 57 | 0.0 | 0.0 | 0.00 | 0.26 | 0.00 | 98 | 1009.9 | |
| 20260831033051 | 57 | 0.0 | 0.0 | 0.00 | 0.26 | 0.00 | 98 | 1010.1 | |
| 20260831031549 | 57 | 0.0 | 0.0 | 0.00 | 0.26 | 0.00 | 98 | 1010.1 | |
| 20260831030111 | 57 | 0.0 | 0.0 | 0.00 | 0.26 | 0.00 | 98 | 1010.0 | |
| 20260831024619 | 57 | 0.0 | 0.0 | 0.00 | 0.29 | 0.00 | 98 | 1010.1 | |
| 20260831023059 | 57 | 0.0 | 0.0 | 0.00 | 0.29 | 0.00 | 98 | 1010.1 | |
| 20260831021554 | 57 | 0.0 | 0.0 | 0.00 | 0.29 | 0.00 | 98 | 1010.2 | |
| 20260831020055 | 56 | 0.0 | 0.0 | 0.00 | 0.29 | 0.00 | 98 | 1010.0 | |
| 20260831014552 | 56 | 0.0 | 0.0 | 0.00 | 0.29 | 0.00 | 98 | 1010.1 | |
| 20260831013113 | 56 | 0.0 | 0.0 | 0.00 | 0.29 | 0.00 | 98 | 1010.1 | |
| 20260831011554 | 56 | 0.0 | 0.0 | 0.00 | 0.29 | 0.00 | 98 | 1010.2 | |
| 20260831010101 | 56 | 0.0 | 0.0 | 0.00 | 0.29 | 0.00 | 97 | 1010.2 | |
| 20260831004557 | 57 | 0.0 | 0.0 | 0.00 | 0.29 | 0.00 | 97 | 1010.2 | |
| 20260831003057 | 57 | 0.0 | 0.0 | 0.00 | 0.29 | 0.00 | 97 | 1010.0 | |
| 20260831001552 | 57 | 0.0 | 0.0 | 0.00 | 0.29 | 0.00 | 97 | 1010.0 | |
| 20260831000059 | 57 | 0.0 | 0.0 | 0.00 | 0.29 | 0.00 | 97 | 1010.1 | |
| 20260830234604 | 57 | 0.0 | 0.0 | 0.00 | 0.29 | 0.00 | 97 | 1009.9 | |
| 20260830233104 | 58 | 0.0 | 0.0 | 0.00 | 0.29 | 0.00 | 97 | 1010.0 | |
| 20260830231550 | 58 | 0.0 | 0.0 | 0.00 | 0.29 | 0.00 | 97 | 1010.0 | |
| 20260830230059 | 58 | 0.0 | 0.0 | 0.00 | 0.29 | 0.00 | 97 | 1010.1 | |
| 20260830224556 | 58 | 0.0 | 0.0 | 0.00 | 0.29 | 0.00 | 97 | 1009.9 | |
| 20260830223053 | 58 | 0.0 | 0.0 | 0.00 | 0.29 | 0.00 | 97 | 1010.0 | |
| 20260830221550 | 58 | 0.0 | 0.0 | 0.00 | 0.29 | 0.00 | 97 | 1010.0 | |
| 20260830220100 | 58 | 0.0 | 0.0 | 0.00 | 0.29 | 0.00 | 97 | 1010.0 | |
| 20260830214602 | 59 | 0.0 | 0.0 | 0.00 | 0.29 | 0.29 | 97 | 1010.0 | |
| 20260830213054 | 59 | 0.0 | 0.0 | 0.00 | 0.29 | 0.29 | 97 | 1009.9 | |
| 20260830211554 | 59 | 0.0 | 0.0 | 0.00 | 0.29 | 0.29 | 97 | 1009.8 | |
| 20260830210056 | 60 | 0.0 | 0.0 | 0.00 | 0.29 | 0.29 | 97 | 1009.7 | |
| 20260830204550 | 60 | 0.0 | 0.0 | 0.00 | 0.29 | 0.29 | 97 | 1009.7 | |
| 20260830203118 | 60 | 0.0 | 0.0 | 0.00 | 0.29 | 0.29 | 97 | 1009.6 | |
| 20260830201559 | 60 | 0.0 | 0.0 | 0.00 | 0.29 | 0.29 | 97 | 1009.5 | |
| 20260830200053 | 60 | 0.0 | 0.0 | 0.00 | 0.29 | 0.29 | 97 | 1009.3 | |
| 20260830194607 | 60 | 0.0 | 0.0 | 0.00 | 0.29 | 0.29 | 97 | 1009.1 | |
| 20260830193057 | 60 | 0.0 | 0.0 | 0.00 | 0.29 | 0.29 | 97 | 1008.7 | |
| 20260830191559 | 60 | 0.0 | 0.0 | 0.00 | 0.29 | 0.29 | 97 | 1008.4 | |
| 20260830190053 | 61 | 0.0 | 0.0 | 0.00 | 0.29 | 0.29 | 97 | 1008.2 | |
| 20260830184549 | 61 | 0.0 | 0.0 | 0.00 | 0.29 | 0.29 | 97 | 1007.9 | |
| 20260830183107 | 61 | 0.0 | 0.0 | 0.00 | 0.29 | 0.29 | 97 | 1007.7 | |
| 20260830181558 | 61 | 0.0 | 0.0 | 0.00 | 0.29 | 0.29 | 96 | 1007.5 | |
| 20260830180053 | 63 | 0.0 | 0.0 | 0.00 | 0.29 | 0.29 | 96 | 1006.8 | |
| 20260830174551 | 63 | 0.0 | 0.0 | 0.00 | 0.29 | 0.29 | 96 | 1006.5 | |
| 20260830173109 | 64 | 0.0 | 0.0 | 0.00 | 0.29 | 0.29 | 96 | 1006.1 | |
| 20260830171553 | 64 | 0.0 | 0.0 | 0.00 | 0.29 | 0.29 | 96 | 1005.6 | |
| 20260830170100 | 64 | 0.0 | 0.0 | 0.00 | 0.29 | 0.29 | 96 | 1005.4 | |
| 20260830164609 | 64 | 0.0 | 0.0 | 0.00 | 0.30 | 0.29 | 97 | 1005.1 | |
| 20260830163105 | 64 | 0.0 | 0.0 | 0.00 | 0.30 | 0.29 | 97 | 1004.9 | |
| 20260830161557 | 64 | 0.0 | 0.0 | 0.00 | 0.29 | 0.28 | 98 | 1004.7 | |
| 20260830160056 | 64 | 0.0 | 0.0 | 0.01 | 0.29 | 0.28 | 98 | 1004.5 | |
| 20260830154553 | 64 | 0.0 | 0.0 | 0.01 | 0.29 | 0.28 | 98 | 1004.3 | |
| 20260830153104 | 63 | 0.0 | 0.0 | 0.02 | 0.29 | 0.28 | 97 | 1004.3 | |
| 20260830151553 | 63 | 0.0 | 0.0 | 0.02 | 0.29 | 0.28 | 97 | 1004.1 | |
| 20260830150055 | 64 | 0.0 | 0.0 | 0.02 | 0.28 | 0.26 | 97 | 1004.3 | |
| 20260830144601 | 63 | 0.0 | 0.0 | 0.02 | 0.28 | 0.26 | 97 | 1004.4 | |
| 20260830143112 | 63 | 0.0 | 0.0 | 0.01 | 0.27 | 0.25 | 98 | 1004.5 | |
| 20260830141556 | 63 | 0.0 | 0.0 | 0.01 | 0.27 | 0.25 | 97 | 1004.3 | |
| 20260830140104 | 63 | 0.0 | 0.0 | 0.00 | 0.25 | 0.24 | 97 | 1004.2 | |
| 20260830134558 | 63 | 0.0 | 0.0 | 0.00 | 0.25 | 0.24 | 97 | 1004.4 | |
| 20260830133136 | 63 | 0.0 | 0.0 | 0.00 | 0.25 | 0.24 | 98 | 1004.3 |